Погода в Краснотуранске

Россия / Красноярский край     54°19′01″N   91°34′03″E
темп.,
°C
ветер,
м/с
пор.,
м/с
влажн.,
%
обл.,
%
осадки,
мм/ч
давл.,
гПа
погр.,
м
22 октября, пт
пт2201:00+5вюв226483 0.0 101863
04:00+4юв236732 0.0 101890
07:00+4юв336795 0.0 1018112
10:00+5вюв236153 0.0 1019208
13:00+9юв344897 0.0 1018428
16:00+10юв3451100 0.0 1017185
19:00+8в116150 0.0 101910
22:00+7сз3560100 0.0 1021184
23 октября, сб
сб2301:00+6сз81278100 0.2 1025994
04:00+4зюз3679100 3.6 1028571
07:00+3юв459490 4.3 1030235
10:00+4ююв46698 0.0 1030501
13:00+7юз56465 0.0 10271206
16:00+8ю58475 0.0 10251336
19:00+6ю6125582 0.0 1025468
22:00+5ю4872100 0.0 1024256
24 октября, вс
вс2401:00+5ю51168100 0.0 1022386
04:00+6ююз91361100 0.1 1022805
07:00+6ююз7126796 0.1 1022517
10:00+7ююз8116680 0.0 1022648
13:00+9юз8115699 0.0 1020990
16:00+9юз71061100 0.0 1021448
19:00+6юз7107697 0.0 1024355
22:00+7юз7107587 0.0 1025380
25 октября, пн
пн2501:00+7юз61076100 0.0 1025376
04:00+7юз697595 0.0 1026358
07:00+7ю4775100 0.0 1026208
10:00+7ю3574100 0.0 1025228
13:00+9ю4667100 0.0 1023384
16:00+11ююз466483 0.0 1021245
19:00+9ююв447367 0.0 102150
22:00+8ююв347828 0.0 102060
26 октября, вт
вт2601:00+7юв337954 0.0 102068
04:00+7юв337897 0.0 102072
07:00+7юв3378100 0.0 102192
10:00+7юв2375100 0.0 1021165
13:00+9юв3466100 0.0 1019393
16:00+9юв2366100 0.0 1016153
19:00+7вюв227074 0.0 101566
22:00+6вюв2272100 0.0 101365